COSMOS 249 DEB *, 3758

Orbit data source: Space-Track

COSMOS 249 DEB *, 3758 is space debris in LEO originally from a launch on Sun, 20 Oct 1968 UTC launched from the Tyuratam Missile And Space Complex (TTMTR). Debris objects in space refer to the collection of defunct objects orbiting the Earth. Examples of debris include non-operational satellites, rocket bodies, and fragments generated from explosions, collisions, or faulty payload assembly.

Loading next visibility...
Identifier
3758, 1968-091AV
Orbit
LEO
Country
Flag of CISCIS
Related business
Manufacturer
Unknown
Mission
Spacecraft
Bus & Motor
Unknown
Mass
Unknown
Launch date (UTC)
1968-10-20 (57 years ago)
Launch vehicle
Unknown
Launch site
Tyuratam Missile And Space Complex (TTMTR)
Object type
Payload
Rocket body
Debris
Shape & HBR
Unknown shape, 0.1 m
Radar Cross Section
Small (<0.1 m²)

Expand to show TLE details & history
Last TLE update: 19 hours ago

TLE from 19 hours ago
0 COSMOS 249 DEB *
1 03758U 68091AV  25340.90234240  .00002416  00000-0  28722-2 0  9991
2 03758  62.2605 229.1689 0777757  64.5195 303.4155 12.82088520589237
Epoch: 2025-12-06T21:39Z
TLE epoch observation values (Epoch: 2025-12-06T21:39:22.383Z)
Latitude
0.00004°
Longitude
-171.59776°
Altitude
1,038.992 km
Speed
7.472 km/s
True Right ascension
15h 16m 40s
True Declination
0° 00' 00"
Sunlit
Object was in daylight at epoch
Visualization orbit readout
Latitude
Unknown
Longitude
Unknown
Altitude
Unknown
Speed
Unknown
Apparent Right ascension
Unknown
Apparent Declination
Unknown
Sunlit
N/A
Visualization observer readout
Local Sidereal Time
14:49:41
Azimuth
Unknown
Elevation
Unknown
Doppler factor
Unknown
Orbital elements
Apogee altitude
1,931.748 km
Perigee altitude
732.413 km
Semi-major axis
7,710.217 km
Eccentricity
0.07778
Inclination
62.2605°
RAAN
229.1689°
Arg. of periapsis
64.5195°
True anomaly
295.58113°
Mean anomaly
303.4155°
Eccentric anomaly
299.53848°
Mean motion
3.20585 °/min
Orbital period
112.29 mins
BSTAR
0.0028722
Loading maneuver chart data...
Computing Atmospheric mass density...

Documentation

Showing up to 5 results
|